Weather History for Beverly, MA

Change the Weather History Date:

Friday, February 15, 2013

  Actual Average Record
Temperature  
Mean Temperature 39 °F -  
Max Temperature 48 °F 34 °F 55 °F (2006)
Min Temperature 30 °F 18 °F 0 °F (2003)
Degree Days  
Heating Degree Days 26    
Moisture  
Dew Point 29 °F    
Average Humidity 69    
Maximum Humidity 89    
Minimum Humidity 48    
Precipitation  
Precipitation 0.00 in - - ()
Sea Level Pressure  
Sea Level Pressure 29.94 in    
Wind  
Wind Speed 6 mph (South)    
Max Wind Speed 16 mph    
Max Gust Speed 21 mph    
Visibility 8 miles    
Events      
Averages and records for this station are not official NWS values.
T = Trace of Precipitation, MM = Missing Value Source: NWS Daily Summary

Daily Weather History Graph

Daily Weather History Graph

Search for Another Location

Airport:

Trip Planner

Search our weather history database for the weather conditions in past years. The results will help you decide how hot, cold, wet, or windy it might be!

Date:

Astronomy

Feb. 15, 2013 Rise Set
Actual Time 6:40 AM EST 5:15 PM EST
Civil Twilight 6:11 AM EST 5:44 PM EST
Nautical Twilight 5:38 AM EST 6:17 PM EST
Astronomical Twilight 5:05 AM EST 6:50 PM EST
Moon 9:06 AM EST (2/15) 11:23 PM EST (2/15)
Length of Visible Light 11h 33m
Length of Day
10h 35m
Waxing Crescent, 30% of the Moon is Illuminated
Feb 15
Waxing Crescent
Feb 17
First Quarter
Feb 25
Full
Mar 4
Last Quarter
Mar 11
New

Hourly Weather History & Observations

Time (EST) Temp. Windchill Dew Point Humidity Pressure Visibility Wind Dir Wind Speed Gust Speed Precip Events Conditions
12:53 AM 33.1 °F - 21.0 °F 61% 29.98 in 10.0 mi Calm Calm - N/A   Partly Cloudy
1:53 AM 30.9 °F 26.2 °F 21.0 °F 67% 29.98 in 10.0 mi SSW 4.6 mph - N/A   Clear
2:53 AM 30.9 °F 26.2 °F 21.9 °F 69% 29.98 in 10.0 mi SSW 4.6 mph - N/A   Clear
3:53 AM 30.9 °F 26.2 °F 24.1 °F 76% 29.98 in 10.0 mi South 4.6 mph - N/A   Clear
4:53 AM 30.0 °F 26.5 °F 24.1 °F 79% 29.97 in 8.0 mi South 3.5 mph - N/A   Clear
5:53 AM 30.9 °F 26.2 °F 27.0 °F 85% 29.98 in 7.0 mi SSW 4.6 mph - N/A   Overcast
6:53 AM 32.0 °F 24.8 °F 28.0 °F 85% 29.98 in 5.0 mi SSW 8.1 mph - N/A   Partly Cloudy
7:53 AM 34.0 °F 28.0 °F 28.9 °F 82% 29.98 in 5.0 mi South 6.9 mph - N/A   Haze
8:53 AM 37.0 °F 29.8 °F 30.9 °F 79% 29.98 in 5.0 mi South 10.4 mph - N/A   Haze
9:53 AM 41.0 °F 37.1 °F 30.0 °F 65% 29.99 in 8.0 mi South 5.8 mph 18.4 mph N/A   Clear
10:53 AM 43.0 °F 35.7 °F 28.0 °F 56% 29.98 in 9.0 mi SSW 15.0 mph 19.6 mph N/A   Clear
11:53 AM 45.0 °F 37.9 °F 28.9 °F 53% 29.95 in 10.0 mi SW 16.1 mph 20.7 mph N/A   Clear
12:53 PM 46.9 °F - 28.0 °F 48% 29.92 in 10.0 mi SW 11.5 mph - N/A   Clear
1:53 PM 48.9 °F - 30.0 °F 48% 29.91 in 10.0 mi SSW 12.7 mph 19.6 mph N/A   Clear
2:53 PM 48.0 °F - 30.9 °F 52% 29.90 in 10.0 mi South 15.0 mph - N/A   Partly Cloudy
3:53 PM 48.0 °F - 32.0 °F 54% 29.89 in 10.0 mi South 9.2 mph 18.4 mph N/A   Clear
4:53 PM 45.0 °F 40.6 °F 33.1 °F 63% 29.89 in 10.0 mi South 8.1 mph - N/A   Clear
5:53 PM 44.1 °F 39.0 °F 33.1 °F 65% 29.90 in 10.0 mi South 9.2 mph - N/A   Clear
6:53 PM 43.0 °F 38.2 °F 33.1 °F 68% 29.91 in 10.0 mi South 8.1 mph - N/A   Clear
7:53 PM 41.0 °F 37.1 °F 33.1 °F 73% 29.91 in 10.0 mi South 5.8 mph - N/A   Clear
8:53 PM 39.9 °F - 32.0 °F 73% 29.93 in 9.0 mi Calm Calm - N/A   Clear
9:53 PM 33.1 °F - 30.0 °F 89% 29.94 in 7.0 mi Calm Calm - N/A   Clear
10:53 PM 34.0 °F 31.0 °F 30.0 °F 85% 29.92 in 5.0 mi ESE 3.5 mph - N/A   Clear
11:53 PM 32.0 °F - 28.0 °F 85% 29.92 in 4.0 mi Calm Calm - N/A   Clear